Time,TemperatureF,DewpointF,PressureIn,WindDirection,WindDirectionDegrees,WindSpeedMPH,WindSpeedGustMPH,Humidity,HourlyPrecipIn,Conditions,Clouds,dailyrainin,SoftwareType,DateUTC
2013-04-06 00:00:00,62.1,57.2,30.04,East,99,4.2,10.2,84,0.00,,---,0.00,VWS V14.01,2013-04-06 05:00:00,
2013-04-06 00:05:00,62.1,57.5,30.04,ESE,104,4.2,10.2,85,0.00,,---,0.00,VWS V14.01,2013-04-06 05:05:00,
2013-04-06 00:10:00,62.1,57.5,30.04,ESE,119,8.2,12.2,85,0.00,,---,0.00,VWS V14.01,2013-04-06 05:10:00,
2013-04-06 00:15:00,62.1,57.5,30.04,SE,134,12.2,12.2,85,0.00,,---,0.00,VWS V14.01,2013-04-06 05:15:00,
2013-04-06 00:20:00,62.1,57.5,30.04,ESE,119,6.2,10.2,85,0.00,,---,0.00,VWS V14.01,2013-04-06 05:20:00,
2013-04-06 00:25:00,62.1,57.5,30.04,ESE,119,7.2,10.2,85,0.00,,---,0.00,VWS V14.01,2013-04-06 05:25:00,
2013-04-06 00:26:00,62.1,57.5,30.04,ESE,120,6.2,10.2,85,0.00,,---,0.00,VWS V14.01,2013-04-06 05:26:00,
2013-04-06 00:30:00,62.1,57.5,30.03,ESE,118,6.2,11.2,85,0.00,,---,0.00,VWS V14.01,2013-04-06 05:30:00,
2013-04-06 00:31:00,62.1,57.5,30.03,ESE,104,4.2,11.2,85,0.00,,---,0.00,VWS V14.01,2013-04-06 05:31:00,
2013-04-06 00:35:00,62.1,57.5,30.03,SE,127,8.2,10.2,85,0.00,,---,0.00,VWS V14.01,2013-04-06 05:35:00,
2013-04-06 00:36:00,62.1,57.5,30.03,ESE,105,10.2,10.2,85,0.00,,---,0.00,VWS V14.01,2013-04-06 05:36:00,
2013-04-06 00:40:00,62.3,57.7,30.03,ESE,104,6.2,10.2,85,0.00,,---,0.00,VWS V14.01,2013-04-06 05:40:00,
2013-04-06 00:41:00,62.3,57.7,30.03,ESE,115,6.2,10.2,85,0.00,,---,0.00,VWS V14.01,2013-04-06 05:41:00,
2013-04-06 00:45:00,62.3,57.7,30.03,East,101,3.2,10.2,85,0.00,,---,0.00,VWS V14.01,2013-04-06 05:45:00,
2013-04-06 00:46:00,62.3,57.7,30.03,East,101,4.2,10.2,85,0.00,,---,0.00,VWS V14.01,2013-04-06 05:46:00,
2013-04-06 00:50:00,62.3,57.7,30.03,ESE,115,6.2,8.2,85,0.00,,---,0.00,VWS V14.01,2013-04-06 05:50:00,
2013-04-06 00:51:00,62.3,57.7,30.03,ESE,119,7.2,8.2,85,0.00,,---,0.00,VWS V14.01,2013-04-06 05:51:00,
2013-04-06 00:55:00,62.3,57.7,30.03,ESE,111,3.2,11.2,85,0.00,,---,0.00,VWS V14.01,2013-04-06 05:55:00,
2013-04-06 00:56:00,62.3,57.7,30.03,ESE,111,5.2,11.2,85,0.00,,---,0.00,VWS V14.01,2013-04-06 05:56:00,
2013-04-06 01:00:00,62.3,57.7,30.03,SE,124,6.2,10.2,85,0.00,,---,0.00,VWS V14.01,2013-04-06 06:00:00,
2013-04-06 01:01:00,62.3,57.7,30.03,ESE,104,5.2,10.2,85,0.00,,---,0.00,VWS V14.01,2013-04-06 06:01:00,
2013-04-06 01:05:00,62.3,57.7,30.03,ESE,108,4.2,9.2,85,0.00,,---,0.00,VWS V14.01,2013-04-06 06:05:00,
2013-04-06 01:06:00,62.3,57.7,30.03,ESE,108,4.2,9.2,85,0.00,,---,0.00,VWS V14.01,2013-04-06 06:06:00,
2013-04-06 01:10:00,62.3,57.7,30.03,ESE,121,5.2,8.2,85,0.00,,---,0.00,VWS V14.01,2013-04-06 06:10:00,
2013-04-06 01:11:00,62.3,57.7,30.03,SE,124,4.2,8.2,85,0.00,,---,0.00,VWS V14.01,2013-04-06 06:11:00,
2013-04-06 01:15:00,62.4,57.8,30.02,SE,134,6.2,13.2,85,0.00,,---,0.00,VWS V14.01,2013-04-06 06:15:00,
2013-04-06 01:16:00,62.4,57.8,30.02,SE,132,5.2,13.2,85,0.00,,---,0.00,VWS V14.01,2013-04-06 06:16:00,
2013-04-06 01:20:00,62.4,57.8,30.02,SE,130,2.2,10.2,85,0.00,,---,0.00,VWS V14.01,2013-04-06 06:20:00,
2013-04-06 01:21:00,62.4,57.8,30.02,SE,130,5.2,10.2,85,0.00,,---,0.00,VWS V14.01,2013-04-06 06:21:00,
2013-04-06 01:25:00,62.4,57.8,30.02,SE,134,5.2,11.2,85,0.00,,---,0.00,VWS V14.01,2013-04-06 06:25:00,
2013-04-06 01:26:00,62.4,58.2,30.02,SE,140,4.2,11.2,86,0.00,,---,0.00,VWS V14.01,2013-04-06 06:26:00,
2013-04-06 01:30:00,62.4,57.8,30.01,SE,134,7.2,11.2,85,0.00,,---,0.00,VWS V14.01,2013-04-06 06:30:00,
2013-04-06 01:31:00,62.4,57.8,30.01,SE,134,3.2,11.2,85,0.00,,---,0.00,VWS V14.01,2013-04-06 06:31:00,
2013-04-06 01:35:00,62.6,58.0,30.01,ESE,109,7.2,12.2,85,0.00,,---,0.00,VWS V14.01,2013-04-06 06:35:00,
2013-04-06 01:36:00,62.6,58.0,30.01,ESE,119,7.2,12.2,85,0.00,,---,0.00,VWS V14.01,2013-04-06 06:36:00,
2013-04-06 01:40:00,62.6,58.0,30.01,SE,143,5.2,12.2,85,0.00,,---,0.00,VWS V14.01,2013-04-06 06:40:00,
2013-04-06 01:41:00,62.6,58.0,30.01,SE,144,6.2,12.2,85,0.00,,---,0.00,VWS V14.01,2013-04-06 06:41:00,
2013-04-06 01:45:00,62.7,58.1,30.00,ESE,121,5.2,12.2,85,0.00,,---,0.00,VWS V14.01,2013-04-06 06:45:00,
2013-04-06 01:46:00,62.7,58.1,30.00,ESE,121,7.2,12.2,85,0.00,,---,0.00,VWS V14.01,2013-04-06 06:46:00,
2013-04-06 01:50:00,62.7,58.1,30.00,SE,136,9.2,12.2,85,0.00,,---,0.00,VWS V14.01,2013-04-06 06:50:00,
2013-04-06 01:51:00,62.7,58.1,30.00,SSE,167,6.2,12.2,85,0.00,,---,0.00,VWS V14.01,2013-04-06 06:51:00,
2013-04-06 01:55:00,62.7,58.1,30.00,SE,142,11.2,14.2,85,0.00,,---,0.00,VWS V14.01,2013-04-06 06:55:00,
2013-04-06 01:56:00,62.7,58.1,30.00,SE,144,11.2,14.2,85,0.00,,---,0.00,VWS V14.01,2013-04-06 06:56:00,
2013-04-06 02:00:00,62.9,58.3,30.00,SSE,159,7.2,12.2,85,0.00,,---,0.00,VWS V14.01,2013-04-06 07:00:00,
2013-04-06 02:01:00,62.9,58.3,30.00,SE,144,6.2,12.2,85,0.00,,---,0.00,VWS V14.01,2013-04-06 07:01:00,
2013-04-06 02:05:00,62.7,58.1,30.00,SE,133,4.2,12.2,85,0.00,,---,0.00,VWS V14.01,2013-04-06 07:05:00,
2013-04-06 02:06:00,62.7,58.1,30.00,SE,134,5.2,12.2,85,0.00,,---,0.00,VWS V14.01,2013-04-06 07:06:00,
2013-04-06 02:10:00,62.7,58.1,30.00,SE,125,7.2,12.2,85,0.00,,---,0.00,VWS V14.01,2013-04-06 07:10:00,
2013-04-06 02:11:00,62.7,58.1,30.00,SE,143,8.2,12.2,85,0.00,,---,0.00,VWS V14.01,2013-04-06 07:11:00,
2013-04-06 02:15:00,62.9,58.3,30.00,SE,138,11.2,11.2,85,0.00,,---,0.00,VWS V14.01,2013-04-06 07:15:00,
2013-04-06 02:16:00,62.9,58.3,30.00,SE,138,6.2,11.2,85,0.00,,---,0.00,VWS V14.01,2013-04-06 07:16:00,
2013-04-06 02:20:00,62.9,58.3,30.00,SE,146,7.2,12.2,85,0.00,,---,0.00,VWS V14.01,2013-04-06 07:20:00,
2013-04-06 02:21:00,62.9,58.3,30.00,SE,137,6.2,12.2,85,0.00,,---,0.00,VWS V14.01,2013-04-06 07:21:00,
2013-04-06 02:25:00,62.9,58.3,30.00,SE,139,6.2,13.2,85,0.00,,---,0.00,VWS V14.01,2013-04-06 07:25:00,
2013-04-06 02:26:00,62.9,58.3,30.00,SE,143,3.2,13.2,85,0.00,,---,0.00,VWS V14.01,2013-04-06 07:26:00,
2013-04-06 02:30:00,62.9,58.3,29.99,SSE,148,13.2,13.2,85,0.00,,---,0.00,VWS V14.01,2013-04-06 07:30:00,
2013-04-06 02:31:00,62.9,58.3,29.99,SE,126,8.2,11.2,85,0.00,,---,0.00,VWS V14.01,2013-04-06 07:31:00,
2013-04-06 02:35:00,63.1,58.5,29.99,SE,145,10.2,13.2,85,0.00,,---,0.00,VWS V14.01,2013-04-06 07:35:00,
2013-04-06 02:36:00,63.1,58.5,29.99,SSE,162,12.2,12.2,85,0.00,,---,0.00,VWS V14.01,2013-04-06 07:36:00,
2013-04-06 02:40:00,63.1,58.2,29.99,East,101,5.2,13.2,84,0.00,,---,0.00,VWS V14.01,2013-04-06 07:40:00,
2013-04-06 02:41:00,63.1,58.2,29.99,ESE,123,10.2,10.2,84,0.00,,---,0.00,VWS V14.01,2013-04-06 07:41:00,
2013-04-06 02:45:00,63.2,58.3,29.98,ESE,121,7.2,13.2,84,0.00,,---,0.00,VWS V14.01,2013-04-06 07:45:00,
2013-04-06 02:46:00,63.2,58.3,29.98,SE,146,5.2,7.2,84,0.00,,---,0.00,VWS V14.01,2013-04-06 07:46:00,
2013-04-06 02:50:00,63.2,58.3,29.98,ESE,123,7.2,11.2,84,0.00,,---,0.00,VWS V14.01,2013-04-06 07:50:00,
2013-04-06 02:51:00,63.2,58.3,29.98,SSE,161,7.2,8.2,84,0.00,,---,0.00,VWS V14.01,2013-04-06 07:51:00,
2013-04-06 02:55:00,63.2,58.3,29.98,SSE,148,8.2,12.2,84,0.00,,---,0.00,VWS V14.01,2013-04-06 07:55:00,
2013-04-06 02:56:00,63.2,58.3,29.98,SE,126,5.2,8.2,84,0.00,,---,0.00,VWS V14.01,2013-04-06 07:56:00,
2013-04-06 03:00:00,63.2,58.6,29.98,SE,128,5.2,12.2,85,0.00,,---,0.00,VWS V14.01,2013-04-06 08:00:00,
2013-04-06 03:01:00,63.2,58.6,29.98,SE,129,5.2,5.2,85,0.00,,---,0.00,VWS V14.01,2013-04-06 08:01:00,
2013-04-06 03:05:00,63.4,58.8,29.98,SE,142,11.2,13.2,85,0.00,,---,0.00,VWS V14.01,2013-04-06 08:05:00,
2013-04-06 03:06:00,63.4,58.8,29.98,SSE,150,6.2,12.2,85,0.00,,---,0.00,VWS V14.01,2013-04-06 08:06:00,
2013-04-06 03:10:00,63.4,58.8,29.98,SE,138,3.2,12.2,85,0.00,,---,0.00,VWS V14.01,2013-04-06 08:10:00,
2013-04-06 03:11:00,63.4,58.8,29.98,SE,142,3.2,5.2,85,0.00,,---,0.00,VWS V14.01,2013-04-06 08:11:00,
2013-04-06 03:15:00,63.5,58.6,29.98,SE,131,9.2,17.2,84,0.00,,---,0.00,VWS V14.01,2013-04-06 08:15:00,
2013-04-06 03:17:00,63.5,58.6,29.98,SE,130,5.2,9.2,84,0.00,,---,0.00,VWS V14.01,2013-04-06 08:17:00,
2013-04-06 03:20:00,63.7,58.8,29.98,ESE,121,9.2,14.2,84,0.00,,---,0.00,VWS V14.01,2013-04-06 08:20:00,
2013-04-06 03:22:00,63.7,58.8,29.98,SE,136,9.2,10.2,84,0.00,,---,0.00,VWS V14.01,2013-04-06 08:22:00,
2013-04-06 03:25:00,63.7,58.8,29.98,SSE,157,11.2,13.2,84,0.00,,---,0.00,VWS V14.01,2013-04-06 08:25:00,
2013-04-06 03:27:00,63.7,58.8,29.98,SE,145,11.2,11.2,84,0.00,,---,0.00,VWS V14.01,2013-04-06 08:27:00,
2013-04-06 03:30:00,63.7,59.1,29.97,SE,131,9.2,14.2,85,0.00,,---,0.00,VWS V14.01,2013-04-06 08:30:00,
2013-04-06 03:32:00,63.7,59.1,29.97,ESE,119,7.2,9.2,85,0.00,,---,0.00,VWS V14.01,2013-04-06 08:32:00,
2013-04-06 03:35:00,63.7,59.1,29.97,SE,140,7.2,12.2,85,0.00,,---,0.00,VWS V14.01,2013-04-06 08:35:00,
2013-04-06 03:37:00,63.7,58.8,29.97,SE,133,5.2,8.2,84,0.00,,---,0.00,VWS V14.01,2013-04-06 08:37:00,
2013-04-06 03:40:00,63.9,59.0,29.97,SE,135,6.2,9.2,84,0.00,,---,0.00,VWS V14.01,2013-04-06 08:40:00,
2013-04-06 03:42:00,63.9,59.3,29.97,SE,140,10.2,10.2,85,0.00,,---,0.00,VWS V14.01,2013-04-06 08:42:00,
2013-04-06 03:45:00,63.9,59.3,29.96,SE,134,8.2,12.2,85,0.00,,---,0.00,VWS V14.01,2013-04-06 08:45:00,
2013-04-06 03:47:00,63.9,59.3,29.96,SE,136,4.2,11.2,85,0.00,,---,0.00,VWS V14.01,2013-04-06 08:47:00,
2013-04-06 03:50:00,63.9,59.3,29.96,SE,142,7.2,12.2,85,0.00,,---,0.00,VWS V14.01,2013-04-06 08:50:00,
2013-04-06 03:52:00,63.9,59.3,29.96,SE,145,5.2,8.2,85,0.00,,---,0.00,VWS V14.01,2013-04-06 08:52:00,
2013-04-06 03:55:00,63.9,59.3,29.96,SE,138,5.2,10.2,85,0.00,,---,0.00,VWS V14.01,2013-04-06 08:55:00,
2013-04-06 03:57:00,63.9,59.3,29.96,SE,144,12.2,12.2,85,0.00,,---,0.00,VWS V14.01,2013-04-06 08:57:00,
2013-04-06 04:00:00,63.9,59.3,29.96,SE,142,6.2,12.2,85,0.00,,---,0.00,VWS V14.01,2013-04-06 09:00:00,
2013-04-06 04:02:00,63.9,59.3,29.96,SE,141,6.2,7.2,85,0.00,,---,0.00,VWS V14.01,2013-04-06 09:02:00,
2013-04-06 04:05:00,63.9,59.3,29.96,SE,142,10.2,13.2,85,0.00,,---,0.00,VWS V14.01,2013-04-06 09:05:00,
2013-04-06 04:07:00,63.9,59.3,29.96,SSE,149,5.2,13.2,85,0.00,,---,0.00,VWS V14.01,2013-04-06 09:07:00,
2013-04-06 04:10:00,64.0,59.4,29.96,SSE,158,12.2,13.2,85,0.00,,---,0.00,VWS V14.01,2013-04-06 09:10:00,
2013-04-06 04:12:00,64.0,59.4,29.96,SE,144,6.2,16.2,85,0.00,,---,0.00,VWS V14.01,2013-04-06 09:12:00,
2013-04-06 04:15:00,64.0,59.4,29.96,SE,134,6.2,16.2,85,0.00,,---,0.00,VWS V14.01,2013-04-06 09:15:00,
2013-04-06 04:17:00,64.0,59.4,29.96,SSE,153,9.2,11.2,85,0.00,,---,0.00,VWS V14.01,2013-04-06 09:17:00,
2013-04-06 04:20:00,64.0,59.4,29.96,SE,131,5.2,13.2,85,0.00,,---,0.00,VWS V14.01,2013-04-06 09:20:00,
2013-04-06 04:22:00,64.2,59.6,29.96,SSE,148,11.2,11.2,85,0.00,,---,0.00,VWS V14.01,2013-04-06 09:22:00,
2013-04-06 04:25:00,64.2,59.6,29.96,SE,139,8.2,11.2,85,0.00,,---,0.00,VWS V14.01,2013-04-06 09:25:00,
2013-04-06 04:27:00,64.2,59.6,29.96,SSE,156,3.2,10.2,85,0.00,,---,0.00,VWS V14.01,2013-04-06 09:27:00,
2013-04-06 04:30:00,64.2,59.9,29.95,SE,131,9.2,10.2,86,0.00,,---,0.00,VWS V14.01,2013-04-06 09:30:00,
2013-04-06 04:32:00,64.2,59.9,29.95,SE,139,5.2,9.2,86,0.00,,---,0.00,VWS V14.01,2013-04-06 09:32:00,
2013-04-06 04:35:00,64.0,59.7,29.95,SE,128,6.2,11.2,86,0.00,,---,0.00,VWS V14.01,2013-04-06 09:35:00,
2013-04-06 04:37:00,64.0,59.7,29.95,ESE,121,4.2,8.2,86,0.00,,---,0.00,VWS V14.01,2013-04-06 09:37:00,
2013-04-06 04:40:00,64.0,59.7,29.95,SSE,152,7.2,11.2,86,0.00,,---,0.00,VWS V14.01,2013-04-06 09:40:00,
2013-04-06 04:42:00,64.0,59.7,29.95,SSE,149,5.2,11.2,86,0.00,,---,0.00,VWS V14.01,2013-04-06 09:42:00,
2013-04-06 04:45:00,64.0,59.7,29.95,SE,138,5.2,11.2,86,0.00,,---,0.00,VWS V14.01,2013-04-06 09:45:00,
2013-04-06 04:47:00,64.0,59.7,29.95,SSE,153,7.2,8.2,86,0.00,,---,0.00,VWS V14.01,2013-04-06 09:47:00,
2013-04-06 04:50:00,64.0,59.7,29.95,SE,140,5.2,11.2,86,0.00,,---,0.00,VWS V14.01,2013-04-06 09:50:00,
2013-04-06 04:52:00,64.0,59.7,29.95,SE,130,6.2,7.2,86,0.00,,---,0.00,VWS V14.01,2013-04-06 09:52:00,
2013-04-06 04:55:00,64.0,59.7,29.95,ESE,117,4.2,10.2,86,0.00,,---,0.00,VWS V14.01,2013-04-06 09:55:00,
2013-04-06 04:57:00,64.0,59.7,29.95,SSE,147,1.2,6.2,86,0.00,,---,0.00,VWS V14.01,2013-04-06 09:57:00,
2013-04-06 05:00:00,64.0,59.7,29.96,SSE,157,2.2,11.2,86,0.00,,---,0.00,VWS V14.01,2013-04-06 10:00:00,
2013-04-06 05:02:00,64.0,59.7,29.96,SSE,153,5.2,11.2,86,0.00,,---,0.00,VWS V14.01,2013-04-06 10:02:00,
2013-04-06 05:05:00,64.0,59.4,29.96,SSE,152,4.2,11.2,85,0.00,,---,0.00,VWS V14.01,2013-04-06 10:05:00,
2013-04-06 05:07:00,64.2,59.6,29.96,SE,142,6.2,8.2,85,0.00,,---,0.00,VWS V14.01,2013-04-06 10:07:00,
2013-04-06 05:10:00,64.2,59.6,29.96,SSE,158,4.2,8.2,85,0.00,,---,0.00,VWS V14.01,2013-04-06 10:10:00,
2013-04-06 05:12:00,64.2,59.6,29.96,SSE,156,6.2,6.2,85,0.00,,---,0.00,VWS V14.01,2013-04-06 10:12:00,
2013-04-06 05:15:00,64.3,59.7,29.95,SSE,148,8.2,10.2,85,0.00,,---,0.00,VWS V14.01,2013-04-06 10:15:00,
2013-04-06 05:17:00,64.3,59.7,29.95,SSE,155,3.2,11.2,85,0.00,,---,0.00,VWS V14.01,2013-04-06 10:17:00,
2013-04-06 05:20:00,64.3,60.0,29.95,SSE,153,3.2,11.2,86,0.00,,---,0.00,VWS V14.01,2013-04-06 10:20:00,
2013-04-06 05:22:00,64.3,60.0,29.95,SSE,163,5.2,7.2,86,0.00,,---,0.00,VWS V14.01,2013-04-06 10:22:00,
2013-04-06 05:25:00,64.2,59.9,29.95,South,170,7.2,11.2,86,0.00,,---,0.00,VWS V14.01,2013-04-06 10:25:00,
2013-04-06 05:27:00,64.2,59.9,29.95,SSE,160,3.2,9.2,86,0.00,,---,0.00,VWS V14.01,2013-04-06 10:27:00,
2013-04-06 05:30:00,64.2,59.9,29.95,SE,146,6.2,11.2,86,0.00,,---,0.00,VWS V14.01,2013-04-06 10:30:00,
2013-04-06 05:32:00,64.2,59.9,29.95,SSE,155,2.2,9.2,86,0.00,,---,0.00,VWS V14.01,2013-04-06 10:32:00,
2013-04-06 05:35:00,64.0,59.7,29.95,SSE,150,3.2,9.2,86,0.00,,---,0.00,VWS V14.01,2013-04-06 10:35:00,
2013-04-06 05:37:00,64.0,59.7,29.95,SSE,148,8.2,14.2,86,0.00,,---,0.00,VWS V14.01,2013-04-06 10:37:00,
2013-04-06 05:40:00,64.2,60.3,29.95,SE,144,5.2,14.2,87,0.00,,---,0.00,VWS V14.01,2013-04-06 10:40:00,
2013-04-06 05:42:00,64.2,60.3,29.95,SSE,151,3.2,10.2,87,0.00,,---,0.00,VWS V14.01,2013-04-06 10:42:00,
2013-04-06 05:45:00,64.2,60.3,29.96,SE,144,6.2,12.2,87,0.00,,---,0.00,VWS V14.01,2013-04-06 10:45:00,
2013-04-06 05:47:00,64.2,60.3,29.96,SE,146,3.2,6.2,87,0.00,,---,0.00,VWS V14.01,2013-04-06 10:47:00,
2013-04-06 05:50:00,64.2,60.3,29.96,SSE,148,5.2,11.2,87,0.00,,---,0.00,VWS V14.01,2013-04-06 10:50:00,
2013-04-06 05:52:00,64.2,60.3,29.96,South,189,6.2,7.2,87,0.00,,---,0.00,VWS V14.01,2013-04-06 10:52:00,
2013-04-06 05:55:00,64.2,60.3,29.96,SSE,161,9.2,12.2,87,0.00,,---,0.00,VWS V14.01,2013-04-06 10:55:00,
2013-04-06 05:57:00,64.2,60.3,29.96,SSE,162,5.2,11.2,87,0.00,,---,0.00,VWS V14.01,2013-04-06 10:57:00,
2013-04-06 06:00:00,64.2,59.9,29.96,SSE,151,5.2,11.2,86,0.00,,---,0.00,VWS V14.01,2013-04-06 11:00:00,
2013-04-06 06:02:00,64.2,59.9,29.96,SSE,151,4.2,5.2,86,0.00,,---,0.00,VWS V14.01,2013-04-06 11:02:00,
2013-04-06 06:05:00,64.2,59.6,29.96,SSE,155,13.2,14.2,85,0.00,,---,0.00,VWS V14.01,2013-04-06 11:05:00,
2013-04-06 06:07:00,64.2,59.6,29.96,South,181,4.2,16.2,85,0.00,,---,0.00,VWS V14.01,2013-04-06 11:07:00,
2013-04-06 06:10:00,64.3,59.4,29.96,SSE,157,5.2,16.2,84,0.00,,---,0.00,VWS V14.01,2013-04-06 11:10:00,
2013-04-06 06:12:00,64.3,59.4,29.96,SSE,154,5.2,14.2,84,0.00,,---,0.00,VWS V14.01,2013-04-06 11:12:00,
2013-04-06 06:15:00,64.5,59.6,29.95,SSE,160,8.2,14.2,84,0.00,,---,0.00,VWS V14.01,2013-04-06 11:15:00,
2013-04-06 06:17:00,64.5,59.6,29.95,SSE,167,7.2,12.2,84,0.00,,---,0.00,VWS V14.01,2013-04-06 11:17:00,
2013-04-06 06:20:00,64.5,59.6,29.95,SE,145,5.2,12.2,84,0.00,,---,0.00,VWS V14.01,2013-04-06 11:20:00,
2013-04-06 06:22:00,64.5,59.6,29.95,SSE,163,10.2,15.2,84,0.00,,---,0.00,VWS V14.01,2013-04-06 11:22:00,
2013-04-06 06:25:00,64.5,59.2,29.95,SE,138,12.2,15.2,83,0.00,,---,0.00,VWS V14.01,2013-04-06 11:25:00,
2013-04-06 06:27:00,64.7,59.4,29.95,SSE,153,11.2,13.2,83,0.00,,---,0.00,VWS V14.01,2013-04-06 11:27:00,
2013-04-06 06:30:00,64.7,59.4,29.96,SE,144,7.2,13.2,83,0.00,,---,0.00,VWS V14.01,2013-04-06 11:30:00,
2013-04-06 06:32:00,64.7,59.4,29.96,SE,144,6.2,10.2,83,0.00,,---,0.00,VWS V14.01,2013-04-06 11:32:00,
2013-04-06 06:33:00,64.7,59.4,29.96,SE,142,6.2,10.2,83,0.00,,---,0.00,VWS V14.01,2013-04-06 11:33:00,
2013-04-06 06:35:00,64.8,59.9,29.96,SE,143,10.2,11.2,84,0.00,,---,0.00,VWS V14.01,2013-04-06 11:35:00,
2013-04-06 06:38:00,64.8,59.9,29.96,SE,134,8.2,16.2,84,0.00,,---,0.00,VWS V14.01,2013-04-06 11:38:00,
2013-04-06 06:40:00,64.8,59.9,29.96,SSE,151,6.2,16.2,84,0.00,,---,0.00,VWS V14.01,2013-04-06 11:40:00,
2013-04-06 06:43:00,64.8,59.9,29.96,SSE,153,8.2,13.2,84,0.00,,---,0.00,VWS V14.01,2013-04-06 11:43:00,
2013-04-06 06:45:00,64.8,59.9,29.96,SSE,149,10.2,13.2,84,0.00,,---,0.00,VWS V14.01,2013-04-06 11:45:00,
2013-04-06 06:48:00,64.8,59.9,29.96,SSE,150,7.2,12.2,84,0.00,,---,0.00,VWS V14.01,2013-04-06 11:48:00,
2013-04-06 06:50:00,64.8,59.9,29.96,SSE,147,11.2,12.2,84,0.00,,---,0.00,VWS V14.01,2013-04-06 11:50:00,
2013-04-06 06:53:00,64.8,59.9,29.96,SSE,147,10.2,12.2,84,0.00,,---,0.00,VWS V14.01,2013-04-06 11:53:00,
2013-04-06 06:55:00,64.8,60.2,29.96,SSE,151,11.2,14.2,85,0.00,,---,0.00,VWS V14.01,2013-04-06 11:55:00,
2013-04-06 06:58:00,64.8,60.2,29.96,SE,139,8.2,14.2,85,0.00,,---,0.00,VWS V14.01,2013-04-06 11:58:00,
2013-04-06 07:00:00,64.8,60.2,29.95,SE,136,9.2,14.2,85,0.00,,---,0.00,VWS V14.01,2013-04-06 12:00:00,
2013-04-06 07:03:00,64.8,60.2,29.95,SSE,148,5.2,13.2,85,0.00,,---,0.00,VWS V14.01,2013-04-06 12:03:00,
2013-04-06 07:05:00,64.8,60.5,29.95,SSE,149,7.2,13.2,86,0.00,,---,0.00,VWS V14.01,2013-04-06 12:05:00,
2013-04-06 07:08:00,64.8,60.5,29.95,SE,144,4.2,10.2,86,0.00,,---,0.00,VWS V14.01,2013-04-06 12:08:00,
2013-04-06 07:10:00,64.8,60.5,29.95,SE,142,4.2,11.2,86,0.00,,---,0.00,VWS V14.01,2013-04-06 12:10:00,
2013-04-06 07:13:00,64.8,60.5,29.95,SE,140,4.2,11.2,86,0.00,,---,0.00,VWS V14.01,2013-04-06 12:13:00,
2013-04-06 07:15:00,64.8,60.8,29.96,SSE,154,5.2,13.2,87,0.00,,---,0.00,VWS V14.01,2013-04-06 12:15:00,
2013-04-06 07:18:00,64.8,60.8,29.96,SSE,155,13.2,13.2,87,0.00,,---,0.00,VWS V14.01,2013-04-06 12:18:00,
2013-04-06 07:20:00,64.7,60.8,29.96,SE,139,6.2,13.2,87,0.00,,---,0.00,VWS V14.01,2013-04-06 12:20:00,
2013-04-06 07:23:00,64.7,60.8,29.96,SE,142,8.2,12.2,87,0.00,,---,0.00,VWS V14.01,2013-04-06 12:23:00,
2013-04-06 07:25:00,64.8,60.8,29.96,SSE,164,5.2,12.2,87,0.00,,---,0.00,VWS V14.01,2013-04-06 12:25:00,
2013-04-06 07:28:00,64.7,60.8,29.96,SE,136,2.2,7.2,87,0.00,,---,0.00,VWS V14.01,2013-04-06 12:28:00,
2013-04-06 07:30:00,64.7,60.8,29.96,SSE,148,6.2,11.2,87,0.00,,---,0.00,VWS V14.01,2013-04-06 12:30:00,
2013-04-06 07:33:00,64.7,60.8,29.96,SSE,158,7.2,11.2,87,0.00,,---,0.00,VWS V14.01,2013-04-06 12:33:00,
2013-04-06 07:35:00,64.7,60.8,29.96,SE,137,5.2,11.2,87,0.00,,---,0.00,VWS V14.01,2013-04-06 12:35:00,
2013-04-06 07:38:00,64.7,60.8,29.96,SSE,150,8.2,8.2,87,0.00,,---,0.00,VWS V14.01,2013-04-06 12:38:00,
2013-04-06 07:40:00,64.7,60.8,29.96,SE,139,5.2,12.2,87,0.00,,---,0.00,VWS V14.01,2013-04-06 12:40:00,
2013-04-06 07:43:00,64.8,60.8,29.96,SSE,150,8.2,11.2,87,0.00,,---,0.00,VWS V14.01,2013-04-06 12:43:00,
2013-04-06 07:45:00,64.8,60.8,29.95,SSE,149,8.2,12.2,87,0.00,,---,0.00,VWS V14.01,2013-04-06 12:45:00,
2013-04-06 07:48:00,64.8,60.8,29.95,SSE,148,7.2,12.2,87,0.00,,---,0.00,VWS V14.01,2013-04-06 12:48:00,
2013-04-06 07:50:00,65.0,61.0,29.95,SE,127,4.2,15.2,87,0.00,,---,0.00,VWS V14.01,2013-04-06 12:50:00,
2013-04-06 07:53:00,65.0,61.0,29.95,SSE,151,8.2,11.2,87,0.00,,---,0.00,VWS V14.01,2013-04-06 12:53:00,
2013-04-06 07:55:00,65.2,61.2,29.95,ESE,121,6.2,14.2,87,0.00,,---,0.00,VWS V14.01,2013-04-06 12:55:00,
2013-04-06 07:58:00,65.2,61.2,29.95,SE,134,5.2,13.2,87,0.00,,---,0.00,VWS V14.01,2013-04-06 12:58:00,
2013-04-06 08:00:00,65.2,61.2,29.95,SE,136,14.2,16.2,87,0.00,,---,0.00,VWS V14.01,2013-04-06 13:00:00,
2013-04-06 08:03:00,65.3,61.0,29.95,SE,136,4.2,14.2,86,0.00,,---,0.00,VWS V14.01,2013-04-06 13:03:00,
2013-04-06 08:05:00,65.5,61.2,29.95,SE,130,10.2,16.2,86,0.00,,---,0.00,VWS V14.01,2013-04-06 13:05:00,
2013-04-06 08:08:00,65.6,61.0,29.95,SSE,148,5.2,10.2,85,0.00,,---,0.00,VWS V14.01,2013-04-06 13:08:00,
2013-04-06 08:10:00,65.8,61.2,29.95,SSE,152,13.2,13.2,85,0.00,,---,0.00,VWS V14.01,2013-04-06 13:10:00,
2013-04-06 08:13:00,66.0,61.4,29.95,SE,140,13.2,13.2,85,0.00,,---,0.00,VWS V14.01,2013-04-06 13:13:00,
2013-04-06 08:15:00,66.0,61.4,29.95,SSE,151,11.2,14.2,85,0.00,,---,0.00,VWS V14.01,2013-04-06 13:15:00,
2013-04-06 08:18:00,66.0,61.4,29.95,SE,141,9.2,11.2,85,0.00,,---,0.00,VWS V14.01,2013-04-06 13:18:00,
2013-04-06 08:20:00,66.1,61.5,29.95,SSE,160,6.2,13.2,85,0.00,,---,0.00,VWS V14.01,2013-04-06 13:20:00,
2013-04-06 08:23:00,66.1,61.5,29.95,SE,132,10.2,13.2,85,0.00,,---,0.00,VWS V14.01,2013-04-06 13:23:00,
2013-04-06 08:25:00,66.3,61.7,29.95,SE,140,9.2,13.2,85,0.00,,---,0.00,VWS V14.01,2013-04-06 13:25:00,
2013-04-06 08:28:00,66.3,61.7,29.95,SE,143,6.2,13.2,85,0.00,,---,0.00,VWS V14.01,2013-04-06 13:28:00,
2013-04-06 08:30:00,66.3,61.7,29.96,SE,144,6.2,13.2,85,0.00,,---,0.00,VWS V14.01,2013-04-06 13:30:00,
2013-04-06 08:33:00,66.3,61.7,29.96,SSE,147,13.2,13.2,85,0.00,,---,0.00,VWS V14.01,2013-04-06 13:33:00,
2013-04-06 08:35:00,66.3,61.7,29.96,SE,146,7.2,13.2,85,0.00,,---,0.00,VWS V14.01,2013-04-06 13:35:00,
2013-04-06 08:38:00,66.3,61.7,29.96,SSE,157,8.2,11.2,85,0.00,,---,0.00,VWS V14.01,2013-04-06 13:38:00,
2013-04-06 08:40:00,66.1,61.5,29.96,SE,144,4.2,12.2,85,0.00,,---,0.00,VWS V14.01,2013-04-06 13:40:00,
2013-04-06 08:43:00,66.3,61.7,29.96,SSE,159,10.2,13.2,85,0.00,,---,0.00,VWS V14.01,2013-04-06 13:43:00,
2013-04-06 08:45:00,66.4,61.4,29.95,SE,129,11.2,14.2,84,0.00,,---,0.00,VWS V14.01,2013-04-06 13:45:00,
2013-04-06 08:48:00,66.8,62.2,29.95,SE,140,4.2,13.2,85,0.00,,---,0.00,VWS V14.01,2013-04-06 13:48:00,
2013-04-06 08:50:00,66.9,61.9,29.95,SE,141,11.2,16.2,84,0.00,,---,0.00,VWS V14.01,2013-04-06 13:50:00,
2013-04-06 08:53:00,67.1,62.1,29.95,SE,142,7.2,14.2,84,0.00,,---,0.00,VWS V14.01,2013-04-06 13:53:00,
2013-04-06 08:55:00,67.3,62.3,29.95,SSE,148,6.2,14.2,84,0.00,,---,0.00,VWS V14.01,2013-04-06 13:55:00,
2013-04-06 08:58:00,67.1,62.1,29.95,SSE,158,13.2,15.2,84,0.00,,---,0.00,VWS V14.01,2013-04-06 13:58:00,
2013-04-06 09:00:00,67.1,62.1,29.95,SE,132,7.2,17.2,84,0.00,,---,0.00,VWS V14.01,2013-04-06 14:00:00,
2013-04-06 09:03:00,67.3,62.3,29.95,SE,135,5.2,14.2,84,0.00,,---,0.00,VWS V14.01,2013-04-06 14:03:00,
2013-04-06 09:05:00,67.4,62.1,29.95,SSE,155,8.2,14.2,83,0.00,,---,0.00,VWS V14.01,2013-04-06 14:05:00,
2013-04-06 09:08:00,67.6,61.9,29.95,SE,144,5.2,17.2,82,0.00,,---,0.00,VWS V14.01,2013-04-06 14:08:00,
2013-04-06 09:10:00,67.9,62.2,29.95,South,178,7.2,17.2,82,0.00,,---,0.00,VWS V14.01,2013-04-06 14:10:00,
2013-04-06 09:13:00,68.1,62.1,29.95,SE,143,16.2,17.2,81,0.00,,---,0.00,VWS V14.01,2013-04-06 14:13:00,
2013-04-06 09:15:00,68.3,62.2,29.95,SE,135,5.2,17.2,81,0.00,,---,0.00,VWS V14.01,2013-04-06 14:15:00,
2013-04-06 09:18:00,68.4,62.0,29.95,South,171,8.2,20.2,80,0.00,,---,0.00,VWS V14.01,2013-04-06 14:18:00,
2013-04-06 09:20:00,68.3,62.2,29.95,SE,134,14.2,20.2,81,0.00,,---,0.00,VWS V14.01,2013-04-06 14:20:00,
2013-04-06 09:23:00,68.4,62.0,29.95,SE,143,4.2,16.2,80,0.00,,---,0.00,VWS V14.01,2013-04-06 14:23:00,
2013-04-06 09:25:00,68.8,62.4,29.95,SE,132,11.2,16.2,80,0.00,,---,0.00,VWS V14.01,2013-04-06 14:25:00,
2013-04-06 09:28:00,68.9,62.5,29.95,South,190,12.2,16.2,80,0.00,,---,0.00,VWS V14.01,2013-04-06 14:28:00,
2013-04-06 09:30:00,69.1,62.3,29.96,SE,134,10.2,16.2,79,0.00,,---,0.00,VWS V14.01,2013-04-06 14:30:00,
2013-04-06 09:33:00,69.1,62.3,29.96,SE,146,10.2,16.2,79,0.00,,---,0.00,VWS V14.01,2013-04-06 14:33:00,
2013-04-06 09:35:00,68.8,62.0,29.96,SSE,155,10.2,19.2,79,0.00,,---,0.00,VWS V14.01,2013-04-06 14:35:00,
2013-04-06 09:38:00,68.8,62.4,29.96,South,189,12.2,13.2,80,0.00,,---,0.00,VWS V14.01,2013-04-06 14:38:00,
2013-04-06 09:40:00,69.1,62.3,29.96,SSE,158,10.2,13.2,79,0.00,,---,0.00,VWS V14.01,2013-04-06 14:40:00,
2013-04-06 09:43:00,69.3,62.5,29.96,SSE,161,4.2,12.2,79,0.00,,---,0.00,VWS V14.01,2013-04-06 14:43:00,
2013-04-06 09:45:00,69.3,62.2,29.98,SE,136,12.2,16.2,78,0.00,,---,0.00,VWS V14.01,2013-04-06 14:45:00,
2013-04-06 09:48:00,69.4,62.2,29.98,SSE,168,12.2,15.2,78,0.00,,---,0.00,VWS V14.01,2013-04-06 14:48:00,
2013-04-06 09:50:00,69.4,62.6,29.98,SE,142,7.2,15.2,79,0.00,,---,0.00,VWS V14.01,2013-04-06 14:50:00,
2013-04-06 09:53:00,69.4,62.2,29.98,SSE,149,11.2,13.2,78,0.00,,---,0.00,VWS V14.01,2013-04-06 14:53:00,
2013-04-06 09:55:00,69.3,62.2,29.98,SSE,157,3.2,13.2,78,0.00,,---,0.00,VWS V14.01,2013-04-06 14:55:00,
2013-04-06 09:58:00,69.3,61.8,29.98,South,176,12.2,14.2,77,0.00,,---,0.00,VWS V14.01,2013-04-06 14:58:00,
2013-04-06 10:00:00,69.3,61.8,29.98,SE,136,6.2,17.2,77,0.00,,---,0.00,VWS V14.01,2013-04-06 15:00:00,
2013-04-06 10:03:00,69.3,62.2,29.98,South,189,7.2,16.2,78,0.00,,---,0.00,VWS V14.01,2013-04-06 15:03:00,
2013-04-06 10:05:00,69.4,62.2,29.98,SSE,164,6.2,16.2,78,0.00,,---,0.00,VWS V14.01,2013-04-06 15:05:00,
2013-04-06 10:08:00,69.6,62.1,29.98,SW,215,10.2,13.2,77,0.00,,---,0.00,VWS V14.01,2013-04-06 15:08:00,
2013-04-06 10:10:00,69.9,62.4,29.98,SSE,155,11.2,15.2,77,0.00,,---,0.00,VWS V14.01,2013-04-06 15:10:00,
2013-04-06 10:13:00,69.8,61.9,29.98,SE,145,11.2,18.2,76,0.00,,---,0.00,VWS V14.01,2013-04-06 15:13:00,
2013-04-06 10:15:00,70.1,62.6,29.98,South,179,6.2,18.2,77,0.00,,---,0.00,VWS V14.01,2013-04-06 15:15:00,
2013-04-06 10:18:00,70.3,62.4,29.98,SSW,207,7.2,15.2,76,0.00,,---,0.00,VWS V14.01,2013-04-06 15:18:00,
2013-04-06 10:20:00,70.3,62.4,29.98,SE,140,12.2,19.2,76,0.00,,---,0.00,VWS V14.01,2013-04-06 15:20:00,
2013-04-06 10:23:00,70.6,62.3,29.98,SSE,152,5.2,18.2,75,0.00,,---,0.00,VWS V14.01,2013-04-06 15:23:00,
2013-04-06 10:25:00,70.4,62.1,29.98,SSE,164,14.2,18.2,75,0.00,,---,0.00,VWS V14.01,2013-04-06 15:25:00,
2013-04-06 10:28:00,70.4,62.1,29.98,SE,139,13.2,17.2,75,0.00,,---,0.00,VWS V14.01,2013-04-06 15:28:00,
2013-04-06 10:30:00,70.3,62.4,29.98,SE,146,7.2,17.2,76,0.00,,---,0.00,VWS V14.01,2013-04-06 15:30:00,
2013-04-06 10:33:00,70.6,62.3,29.98,SE,140,10.2,15.2,75,0.00,,---,0.00,VWS V14.01,2013-04-06 15:33:00,
2013-04-06 10:35:00,70.6,62.3,29.98,SE,144,12.2,17.2,75,0.00,,---,0.00,VWS V14.01,2013-04-06 15:35:00,
2013-04-06 10:38:00,70.8,62.5,29.98,SSE,163,13.2,13.2,75,0.00,,---,0.00,VWS V14.01,2013-04-06 15:38:00,
2013-04-06 10:40:00,70.8,62.1,29.98,SSE,161,12.2,17.2,74,0.00,,---,0.00,VWS V14.01,2013-04-06 15:40:00,
2013-04-06 10:43:00,70.8,62.1,29.98,SE,142,11.2,16.2,74,0.00,,---,0.00,VWS V14.01,2013-04-06 15:43:00,
2013-04-06 10:45:00,70.8,62.5,29.98,SE,138,7.2,16.2,75,0.00,,---,0.00,VWS V14.01,2013-04-06 15:45:00,
2013-04-06 10:48:00,71.1,62.8,29.98,SE,138,13.2,15.2,75,0.00,,---,0.00,VWS V14.01,2013-04-06 15:48:00,
2013-04-06 10:50:00,71.3,62.6,29.98,SSE,161,11.2,21.2,74,0.00,,---,0.00,VWS V14.01,2013-04-06 15:50:00,
2013-04-06 10:53:00,71.3,62.6,29.98,South,171,12.2,18.2,74,0.00,,---,0.00,VWS V14.01,2013-04-06 15:53:00,
2013-04-06 10:55:00,70.8,62.1,29.98,SE,145,15.2,18.2,74,0.00,,---,0.00,VWS V14.01,2013-04-06 15:55:00,
2013-04-06 10:58:00,70.6,62.3,29.98,SSE,164,6.2,23.2,75,0.00,,---,0.00,VWS V14.01,2013-04-06 15:58:00,
2013-04-06 11:00:00,70.3,62.0,29.98,SSE,167,13.2,23.2,75,0.00,,---,0.00,VWS V14.01,2013-04-06 16:00:00,
2013-04-06 11:03:00,70.3,62.0,29.98,South,176,3.2,13.2,75,0.00,,---,0.00,VWS V14.01,2013-04-06 16:03:00,
2013-04-06 11:05:00,70.1,61.8,29.98,SE,144,7.2,19.2,75,0.00,,---,0.00,VWS V14.01,2013-04-06 16:05:00,
2013-04-06 11:08:00,70.3,62.4,29.98,SE,146,6.2,13.2,76,0.00,,---,0.00,VWS V14.01,2013-04-06 16:08:00,
2013-04-06 11:10:00,70.9,62.6,29.98,SE,124,13.2,16.2,75,0.00,,---,0.00,VWS V14.01,2013-04-06 16:10:00,
2013-04-06 11:13:00,70.9,62.2,29.98,SE,141,12.2,17.2,74,0.00,,---,0.00,VWS V14.01,2013-04-06 16:13:00,
2013-04-06 11:15:00,71.1,62.4,29.98,SSE,159,14.2,20.2,74,0.00,,---,0.00,VWS V14.01,2013-04-06 16:15:00,
2013-04-06 11:18:00,71.1,62.4,29.98,SE,143,5.2,14.2,74,0.00,,---,0.00,VWS V14.01,2013-04-06 16:18:00,
2013-04-06 11:20:00,71.6,62.9,29.98,SSE,157,13.2,16.2,74,0.00,,---,0.00,VWS V14.01,2013-04-06 16:20:00,
2013-04-06 11:23:00,72.0,62.5,29.98,SSE,167,7.2,18.2,72,0.00,,---,0.00,VWS V14.01,2013-04-06 16:23:00,
2013-04-06 11:25:00,72.0,62.1,29.98,SSE,150,13.2,18.2,71,0.00,,---,0.00,VWS V14.01,2013-04-06 16:25:00,
2013-04-06 11:28:00,72.1,62.2,29.98,SSE,148,11.2,24.2,71,0.00,,---,0.00,VWS V14.01,2013-04-06 16:28:00,
2013-04-06 11:30:00,72.1,62.2,29.98,SSE,154,16.2,24.2,71,0.00,,---,0.00,VWS V14.01,2013-04-06 16:30:00,
2013-04-06 11:33:00,72.0,61.7,29.98,SE,144,16.2,17.2,70,0.00,,---,0.00,VWS V14.01,2013-04-06 16:33:00,
2013-04-06 11:35:00,72.1,61.8,29.98,SE,138,11.2,19.2,70,0.00,,---,0.00,VWS V14.01,2013-04-06 16:35:00,
2013-04-06 11:38:00,72.5,62.2,29.98,South,169,8.2,17.2,70,0.00,,---,0.00,VWS V14.01,2013-04-06 16:38:00,
2013-04-06 11:40:00,72.8,62.5,29.98,SSE,153,6.2,21.2,70,0.00,,---,0.00,VWS V14.01,2013-04-06 16:40:00,
2013-04-06 11:43:00,73.0,62.2,29.98,SSE,155,11.2,14.2,69,0.00,,---,0.00,VWS V14.01,2013-04-06 16:43:00,
2013-04-06 11:45:00,73.2,62.4,29.97,SE,138,7.2,18.2,69,0.00,,---,0.00,VWS V14.01,2013-04-06 16:45:00,
2013-04-06 11:48:00,73.5,62.7,29.97,SSE,160,11.2,15.2,69,0.00,,---,0.00,VWS V14.01,2013-04-06 16:48:00,
2013-04-06 11:50:00,73.3,62.5,29.97,SE,143,13.2,17.2,69,0.00,,---,0.00,VWS V14.01,2013-04-06 16:50:00,
2013-04-06 11:53:00,73.0,61.8,29.97,SSE,166,12.2,17.2,68,0.00,,---,0.00,VWS V14.01,2013-04-06 16:53:00,
2013-04-06 11:55:00,73.2,62.4,29.97,SSE,149,16.2,18.2,69,0.00,,---,0.00,VWS V14.01,2013-04-06 16:55:00,
2013-04-06 11:58:00,73.2,62.4,29.97,SSE,156,11.2,19.2,69,0.00,,---,0.00,VWS V14.01,2013-04-06 16:58:00,
2013-04-06 12:00:00,73.0,62.2,29.97,SSW,199,12.2,19.2,69,0.00,,---,0.00,VWS V14.01,2013-04-06 17:00:00,
2013-04-06 12:03:00,72.7,62.4,29.97,ESE,117,17.2,21.2,70,0.00,,---,0.00,VWS V14.01,2013-04-06 17:03:00,
2013-04-06 12:05:00,72.7,62.4,29.97,SE,144,10.2,21.2,70,0.00,,---,0.00,VWS V14.01,2013-04-06 17:05:00,
2013-04-06 12:08:00,72.7,62.4,29.97,SSE,165,8.2,21.2,70,0.00,,---,0.00,VWS V14.01,2013-04-06 17:08:00,
2013-04-06 12:10:00,73.2,62.0,29.97,SSE,163,11.2,21.2,68,0.00,,---,0.00,VWS V14.01,2013-04-06 17:10:00,
2013-04-06 12:13:00,73.3,62.5,29.97,SSE,148,8.2,16.2,69,0.00,,---,0.00,VWS V14.01,2013-04-06 17:13:00,
2013-04-06 12:15:00,73.5,62.7,29.98,SSE,153,3.2,19.2,69,0.00,,---,0.00,VWS V14.01,2013-04-06 17:15:00,
2013-04-06 12:18:00,73.3,62.5,29.98,SE,135,21.2,21.2,69,0.00,,---,0.00,VWS V14.01,2013-04-06 17:18:00,
2013-04-06 12:20:00,73.3,62.9,29.98,SE,139,16.2,22.2,70,0.00,,---,0.00,VWS V14.01,2013-04-06 17:20:00,
2013-04-06 12:23:00,73.0,62.7,29.98,SSE,163,14.2,19.2,70,0.00,,---,0.00,VWS V14.01,2013-04-06 17:23:00,
2013-04-06 12:25:00,73.0,62.7,29.98,SSE,153,16.2,19.2,70,0.00,,---,0.00,VWS V14.01,2013-04-06 17:25:00,
2013-04-06 12:28:00,73.0,62.7,29.98,SE,132,6.2,20.2,70,0.00,,---,0.00,VWS V14.01,2013-04-06 17:28:00,
2013-04-06 12:30:00,73.2,62.8,29.97,SE,144,7.2,20.2,70,0.00,,---,0.00,VWS V14.01,2013-04-06 17:30:00,
2013-04-06 12:33:00,73.9,62.7,29.97,SSE,148,12.2,22.2,68,0.00,,---,0.00,VWS V14.01,2013-04-06 17:33:00,
2013-04-06 12:35:00,74.0,62.8,29.97,ESE,123,8.2,22.2,68,0.00,,---,0.00,VWS V14.01,2013-04-06 17:35:00,
2013-04-06 12:38:00,74.0,62.4,29.97,SE,144,12.2,19.2,67,0.00,,---,0.00,VWS V14.01,2013-04-06 17:38:00,
2013-04-06 12:40:00,73.5,62.3,29.97,SSE,157,7.2,19.2,68,0.00,,---,0.00,VWS V14.01,2013-04-06 17:40:00,
2013-04-06 12:43:00,73.7,62.1,29.97,SSE,159,16.2,17.2,67,0.00,,---,0.00,VWS V14.01,2013-04-06 17:43:00,
2013-04-06 12:45:00,74.0,62.4,29.95,SE,139,3.2,18.2,67,0.00,,---,0.00,VWS V14.01,2013-04-06 17:45:00,
2013-04-06 12:48:00,74.7,63.0,29.95,SE,140,20.2,20.2,67,0.00,,---,0.00,VWS V14.01,2013-04-06 17:48:00,
2013-04-06 12:50:00,74.4,62.3,29.95,SSE,165,20.2,20.2,66,0.00,,---,0.00,VWS V14.01,2013-04-06 17:50:00,
2013-04-06 12:53:00,74.0,62.4,29.95,SSW,201,20.2,20.2,67,0.00,,---,0.00,VWS V14.01,2013-04-06 17:53:00,
2013-04-06 12:55:00,73.7,62.5,29.95,SE,138,12.2,21.2,68,0.00,,---,0.00,VWS V14.01,2013-04-06 17:55:00,
2013-04-06 12:58:00,73.9,62.3,29.95,SE,139,14.2,20.2,67,0.00,,---,0.00,VWS V14.01,2013-04-06 17:58:00,
2013-04-06 13:00:00,73.9,62.3,29.95,SSE,161,11.2,20.2,67,0.00,,---,0.00,VWS V14.01,2013-04-06 18:00:00,
2013-04-06 13:03:00,74.2,62.1,29.95,SE,138,6.2,12.2,66,0.00,,---,0.00,VWS V14.01,2013-04-06 18:03:00,
2013-04-06 13:05:00,74.4,62.3,29.95,SE,136,11.2,14.2,66,0.00,,---,0.00,VWS V14.01,2013-04-06 18:05:00,
2013-04-06 13:08:00,74.4,62.3,29.95,SE,142,18.2,20.2,66,0.00,,---,0.00,VWS V14.01,2013-04-06 18:08:00,
2013-04-06 13:10:00,74.2,62.1,29.95,ESE,119,12.2,20.2,66,0.00,,---,0.00,VWS V14.01,2013-04-06 18:10:00,
2013-04-06 13:13:00,74.2,62.1,29.95,SE,143,13.2,17.2,66,0.00,,---,0.00,VWS V14.01,2013-04-06 18:13:00,
2013-04-06 13:15:00,74.6,62.5,29.95,SSE,167,4.2,17.2,66,0.00,,---,0.00,VWS V14.01,2013-04-06 18:15:00,
2013-04-06 13:18:00,74.6,62.5,29.95,SE,138,12.2,15.2,66,0.00,,---,0.00,VWS V14.01,2013-04-06 18:18:00,
2013-04-06 13:20:00,74.4,61.9,29.95,SSE,166,13.2,21.2,65,0.00,,---,0.00,VWS V14.01,2013-04-06 18:20:00,
2013-04-06 13:23:00,74.2,61.7,29.95,SE,135,8.2,20.2,65,0.00,,---,0.00,VWS V14.01,2013-04-06 18:23:00,
2013-04-06 13:25:00,74.2,62.5,29.95,SSE,156,19.2,20.2,67,0.00,,---,0.00,VWS V14.01,2013-04-06 18:25:00,
2013-04-06 13:28:00,74.2,61.7,29.95,SSE,155,10.2,21.2,65,0.00,,---,0.00,VWS V14.01,2013-04-06 18:28:00,
2013-04-06 13:30:00,74.0,61.9,29.95,SE,146,6.2,21.2,66,0.00,,---,0.00,VWS V14.01,2013-04-06 18:30:00,
2013-04-06 13:33:00,74.4,62.3,29.95,SSE,157,12.2,16.2,66,0.00,,---,0.00,VWS V14.01,2013-04-06 18:33:00,
2013-04-06 13:35:00,74.2,61.7,29.95,SE,143,4.2,20.2,65,0.00,,---,0.00,VWS V14.01,2013-04-06 18:35:00,
2013-04-06 13:38:00,74.4,62.3,29.95,SE,139,9.2,15.2,66,0.00,,---,0.00,VWS V14.01,2013-04-06 18:38:00,
2013-04-06 13:40:00,74.7,62.2,29.95,South,188,14.2,17.2,65,0.00,,---,0.00,VWS V14.01,2013-04-06 18:40:00,
2013-04-06 13:43:00,74.4,62.3,29.95,SW,216,8.2,18.2,66,0.00,,---,0.00,VWS V14.01,2013-04-06 18:43:00,
2013-04-06 13:45:00,74.9,63.2,29.94,SSE,155,12.2,18.2,67,0.00,,---,0.00,VWS V14.01,2013-04-06 18:45:00,
2013-04-06 13:48:00,75.3,62.7,29.94,ESE,111,6.2,13.2,65,0.00,,---,0.00,VWS V14.01,2013-04-06 18:48:00,
2013-04-06 13:50:00,75.1,62.1,29.94,SSE,163,18.2,20.2,64,0.00,,---,0.00,VWS V14.01,2013-04-06 18:50:00,
2013-04-06 13:53:00,74.4,62.3,29.94,SSE,160,12.2,18.2,66,0.00,,---,0.00,VWS V14.01,2013-04-06 18:53:00,
2013-04-06 13:55:00,73.9,62.3,29.94,SSE,155,13.2,20.2,67,0.00,,---,0.00,VWS V14.01,2013-04-06 18:55:00,
2013-04-06 13:58:00,73.9,62.3,29.94,SE,146,4.2,20.2,67,0.00,,---,0.00,VWS V14.01,2013-04-06 18:58:00,
2013-04-06 14:00:00,74.2,62.1,29.93,SE,132,15.2,20.2,66,0.00,,---,0.00,VWS V14.01,2013-04-06 19:00:00,
2013-04-06 14:03:00,73.9,62.3,29.93,SSE,150,14.2,19.2,67,0.00,,---,0.00,VWS V14.01,2013-04-06 19:03:00,
2013-04-06 14:05:00,73.7,62.1,29.93,SSE,151,5.2,19.2,67,0.00,,---,0.00,VWS V14.01,2013-04-06 19:05:00,
2013-04-06 14:08:00,73.9,63.1,29.93,SSE,153,5.2,15.2,69,0.00,,---,0.00,VWS V14.01,2013-04-06 19:08:00,
2013-04-06 14:10:00,74.4,62.7,29.93,SE,132,13.2,19.2,67,0.00,,---,0.00,VWS V14.01,2013-04-06 19:10:00,
2013-04-06 14:13:00,74.2,63.0,29.93,SE,125,13.2,17.2,68,0.00,,---,0.00,VWS V14.01,2013-04-06 19:13:00,
2013-04-06 14:15:00,74.4,62.7,29.92,SE,136,12.2,19.2,67,0.00,,---,0.00,VWS V14.01,2013-04-06 19:15:00,
2013-04-06 14:18:00,74.6,63.3,29.92,South,171,16.2,21.2,68,0.00,,---,0.00,VWS V14.01,2013-04-06 19:18:00,
2013-04-06 14:20:00,74.7,63.0,29.92,SSE,161,21.2,21.2,67,0.00,,---,0.00,VWS V14.01,2013-04-06 19:20:00,
2013-04-06 14:23:00,74.7,63.0,29.92,SSE,148,13.2,21.2,67,0.00,,---,0.00,VWS V14.01,2013-04-06 19:23:00,
2013-04-06 14:25:00,74.7,63.0,29.92,SE,142,17.2,21.2,67,0.00,,---,0.00,VWS V14.01,2013-04-06 19:25:00,
2013-04-06 14:28:00,74.6,62.9,29.92,SSE,158,7.2,17.2,67,0.00,,---,0.00,VWS V14.01,2013-04-06 19:28:00,
2013-04-06 14:30:00,74.6,62.9,29.90,SSW,192,7.2,20.2,67,0.00,,---,0.00,VWS V14.01,2013-04-06 19:30:00,
2013-04-06 14:33:00,74.9,63.2,29.90,SSE,159,16.2,22.2,67,0.00,,---,0.00,VWS V14.01,2013-04-06 19:33:00,
2013-04-06 14:35:00,74.6,62.9,29.90,SSE,148,20.2,22.2,67,0.00,,---,0.00,VWS V14.01,2013-04-06 19:35:00,
2013-04-06 14:38:00,74.2,62.5,29.90,SSE,153,7.2,20.2,67,0.00,,---,0.00,VWS V14.01,2013-04-06 19:38:00,
2013-04-06 14:40:00,74.0,62.4,29.90,SSE,149,13.2,27.2,67,0.00,,---,0.00,VWS V14.01,2013-04-06 19:40:00,
2013-04-06 14:43:00,74.2,62.5,29.90,SE,142,15.2,21.2,67,0.00,,---,0.00,VWS V14.01,2013-04-06 19:43:00,
2013-04-06 14:45:00,74.6,62.9,29.89,SE,131,14.2,21.2,67,0.00,,---,0.00,VWS V14.01,2013-04-06 19:45:00,
2013-04-06 14:48:00,74.9,62.3,29.90,SE,126,16.2,20.2,65,0.00,,---,0.00,VWS V14.01,2013-04-06 19:48:00,
2013-04-06 14:50:00,74.4,62.7,29.89,SE,132,18.2,21.2,67,0.00,,---,0.00,VWS V14.01,2013-04-06 19:50:00,
2013-04-06 14:53:00,74.0,61.9,29.90,SSE,162,7.2,19.2,66,0.00,,---,0.00,VWS V14.01,2013-04-06 19:53:00,
2013-04-06 14:55:00,74.2,62.5,29.89,SSE,163,6.2,19.2,67,0.00,,---,0.00,VWS V14.01,2013-04-06 19:55:00,
2013-04-06 14:58:00,74.0,61.9,29.90,SSE,167,20.2,24.2,66,0.00,,---,0.00,VWS V14.01,2013-04-06 19:58:00,
2013-04-06 15:00:00,74.0,62.8,29.89,SE,133,11.2,24.2,68,0.00,,---,0.00,VWS V14.01,2013-04-06 20:00:00,
2013-04-06 15:03:00,74.0,62.8,29.89,SE,139,11.2,20.2,68,0.00,,---,0.00,VWS V14.01,2013-04-06 20:03:00,
2013-04-06 15:05:00,74.2,63.0,29.89,SSE,150,11.2,20.2,68,0.00,,---,0.00,VWS V14.01,2013-04-06 20:05:00,
2013-04-06 15:08:00,74.4,63.2,29.89,SSE,154,8.2,20.2,68,0.00,,---,0.00,VWS V14.01,2013-04-06 20:08:00,
2013-04-06 15:10:00,74.9,62.8,29.89,SSE,148,7.2,20.2,66,0.00,,---,0.00,VWS V14.01,2013-04-06 20:10:00,
2013-04-06 15:13:00,74.9,62.8,29.89,South,169,11.2,19.2,66,0.00,,---,0.00,VWS V14.01,2013-04-06 20:13:00,
2013-04-06 15:15:00,74.6,62.5,29.89,SSE,153,18.2,23.2,66,0.00,,---,0.00,VWS V14.01,2013-04-06 20:15:00,
2013-04-06 15:18:00,74.2,62.5,29.89,SE,129,11.2,22.2,67,0.00,,---,0.00,VWS V14.01,2013-04-06 20:18:00,
2013-04-06 15:20:00,74.6,62.9,29.89,SE,145,14.2,22.2,67,0.00,,---,0.00,VWS V14.01,2013-04-06 20:20:00,
2013-04-06 15:23:00,74.0,62.8,29.89,SSE,159,16.2,23.2,68,0.00,,---,0.00,VWS V14.01,2013-04-06 20:23:00,
2013-04-06 15:25:00,73.9,62.3,29.89,SSE,161,11.2,23.2,67,0.00,,---,0.00,VWS V14.01,2013-04-06 20:25:00,
2013-04-06 15:28:00,74.0,62.4,29.89,SE,139,6.2,17.2,67,0.00,,---,0.00,VWS V14.01,2013-04-06 20:28:00,
2013-04-06 15:30:00,74.0,62.8,29.88,SE,144,15.2,21.2,68,0.00,,---,0.00,VWS V14.01,2013-04-06 20:30:00,
2013-04-06 15:33:00,73.9,62.7,29.88,SSE,167,7.2,20.2,68,0.00,,---,0.00,VWS V14.01,2013-04-06 20:33:00,
2013-04-06 15:35:00,74.4,62.7,29.88,SSE,164,13.2,20.2,67,0.00,,---,0.00,VWS V14.01,2013-04-06 20:35:00,
2013-04-06 15:38:00,74.6,62.9,29.88,SE,142,5.2,17.2,67,0.00,,---,0.00,VWS V14.01,2013-04-06 20:38:00,
2013-04-06 15:40:00,74.4,62.3,29.88,SSE,157,6.2,19.2,66,0.00,,---,0.00,VWS V14.01,2013-04-06 20:40:00,
2013-04-06 15:43:00,74.2,62.5,29.88,SE,144,20.2,20.2,67,0.00,,---,0.00,VWS V14.01,2013-04-06 20:43:00,
2013-04-06 15:45:00,74.4,62.3,29.88,SE,140,13.2,20.2,66,0.00,,---,0.00,VWS V14.01,2013-04-06 20:45:00,
2013-04-06 15:48:00,74.4,64.0,29.88,South,176,10.2,23.2,70,0.00,,---,0.00,VWS V14.01,2013-04-06 20:48:00,
2013-04-06 15:50:00,74.0,62.4,29.88,SSE,161,7.2,26.2,67,0.00,,---,0.00,VWS V14.01,2013-04-06 20:50:00,
2013-04-06 15:53:00,73.9,62.3,29.88,SE,142,14.2,26.2,67,0.00,,---,0.00,VWS V14.01,2013-04-06 20:53:00,
2013-04-06 15:55:00,74.2,62.5,29.88,SE,141,5.2,26.2,67,0.00,,---,0.00,VWS V14.01,2013-04-06 20:55:00,
2013-04-06 15:58:00,74.7,63.0,29.88,SSE,148,9.2,17.2,67,0.00,,---,0.00,VWS V14.01,2013-04-06 20:58:00,
2013-04-06 16:00:00,74.4,63.2,29.87,SSE,164,16.2,19.2,68,0.00,,---,0.00,VWS V14.01,2013-04-06 21:00:00,
2013-04-06 16:03:00,74.2,63.0,29.87,SE,140,6.2,21.2,68,0.00,,---,0.00,VWS V14.01,2013-04-06 21:03:00,
2013-04-06 16:05:00,74.6,63.3,29.87,SSE,151,5.2,21.2,68,0.00,,---,0.00,VWS V14.01,2013-04-06 21:05:00,
2013-04-06 16:08:00,74.7,63.0,29.87,SSE,153,4.2,20.2,67,0.00,,---,0.00,VWS V14.01,2013-04-06 21:08:00,
2013-04-06 16:10:00,74.9,63.2,29.87,South,173,11.2,20.2,67,0.00,,---,0.00,VWS V14.01,2013-04-06 21:10:00,
2013-04-06 16:13:00,74.7,63.0,29.87,SSE,155,18.2,18.2,67,0.00,,---,0.00,VWS V14.01,2013-04-06 21:13:00,
2013-04-06 16:15:00,74.6,62.9,29.86,SE,146,15.2,18.2,67,0.00,,---,0.00,VWS V14.01,2013-04-06 21:15:00,
2013-04-06 16:18:00,74.7,63.0,29.86,SSE,153,7.2,21.2,67,0.00,,---,0.00,VWS V14.01,2013-04-06 21:18:00,
2013-04-06 16:20:00,74.4,63.2,29.86,SSE,157,12.2,21.2,68,0.00,,---,0.00,VWS V14.01,2013-04-06 21:20:00,
2013-04-06 16:23:00,74.4,63.2,29.86,SSE,153,8.2,19.2,68,0.00,,---,0.00,VWS V14.01,2013-04-06 21:23:00,
2013-04-06 16:25:00,74.4,62.7,29.86,ESE,115,10.2,20.2,67,0.00,,---,0.00,VWS V14.01,2013-04-06 21:25:00,
2013-04-06 16:28:00,74.2,62.5,29.86,SE,127,13.2,20.2,67,0.00,,---,0.00,VWS V14.01,2013-04-06 21:28:00,
2013-04-06 16:30:00,74.2,63.0,29.86,SE,132,9.2,20.2,68,0.00,,---,0.00,VWS V14.01,2013-04-06 21:30:00,
2013-04-06 16:33:00,74.2,62.5,29.86,SSW,192,10.2,21.2,67,0.00,,---,0.00,VWS V14.01,2013-04-06 21:33:00,
2013-04-06 16:35:00,74.0,62.8,29.86,SE,128,12.2,21.2,68,0.00,,---,0.00,VWS V14.01,2013-04-06 21:35:00,
2013-04-06 16:38:00,73.7,62.5,29.86,SSE,156,11.2,18.2,68,0.00,,---,0.00,VWS V14.01,2013-04-06 21:38:00,
2013-04-06 16:40:00,74.2,62.5,29.86,SE,131,13.2,23.2,67,0.00,,---,0.00,VWS V14.01,2013-04-06 21:40:00,
2013-04-06 16:43:00,74.0,62.4,29.86,SSE,163,6.2,22.2,67,0.00,,---,0.00,VWS V14.01,2013-04-06 21:43:00,
2013-04-06 16:45:00,73.9,62.7,29.86,SE,138,11.2,24.2,68,0.00,,---,0.00,VWS V14.01,2013-04-06 21:45:00,
2013-04-06 16:48:00,73.5,62.7,29.86,SSE,162,7.2,20.2,69,0.00,,---,0.00,VWS V14.01,2013-04-06 21:48:00,
2013-04-06 16:50:00,73.5,63.1,29.86,SSE,147,13.2,21.2,70,0.00,,---,0.00,VWS V14.01,2013-04-06 21:50:00,
2013-04-06 16:53:00,73.9,63.1,29.86,SE,144,19.2,22.2,69,0.00,,---,0.00,VWS V14.01,2013-04-06 21:53:00,
2013-04-06 16:55:00,73.5,62.7,29.86,SE,138,12.2,22.2,69,0.00,,---,0.00,VWS V14.01,2013-04-06 21:55:00,
2013-04-06 16:58:00,73.7,62.9,29.86,SE,139,16.2,19.2,69,0.00,,---,0.00,VWS V14.01,2013-04-06 21:58:00,
2013-04-06 17:00:00,73.7,62.9,29.85,SE,144,14.2,19.2,69,0.00,,---,0.00,VWS V14.01,2013-04-06 22:00:00,
2013-04-06 17:03:00,73.5,62.7,29.85,SE,138,8.2,20.2,69,0.00,,---,0.00,VWS V14.01,2013-04-06 22:03:00,
2013-04-06 17:05:00,73.5,63.1,29.85,SSE,156,20.2,20.2,70,0.00,,---,0.00,VWS V14.01,2013-04-06 22:05:00,
2013-04-06 17:08:00,73.7,63.3,29.85,SSE,155,14.2,20.2,70,0.00,,---,0.00,VWS V14.01,2013-04-06 22:08:00,
2013-04-06 17:10:00,73.7,62.9,29.85,SE,134,19.2,20.2,69,0.00,,---,0.00,VWS V14.01,2013-04-06 22:10:00,
2013-04-06 17:13:00,73.5,63.1,29.85,SE,126,6.2,24.2,70,0.00,,---,0.00,VWS V14.01,2013-04-06 22:13:00,
2013-04-06 17:15:00,73.5,63.1,29.84,SSE,165,11.2,24.2,70,0.00,,---,0.00,VWS V14.01,2013-04-06 22:15:00,
2013-04-06 17:18:00,73.2,62.8,29.84,ESE,121,15.2,18.2,70,0.00,,---,0.00,VWS V14.01,2013-04-06 22:18:00,
2013-04-06 17:20:00,73.2,63.2,29.84,SSE,150,6.2,19.2,71,0.00,,---,0.00,VWS V14.01,2013-04-06 22:20:00,
2013-04-06 17:23:00,73.0,63.0,29.84,SSE,148,19.2,23.2,71,0.00,,---,0.00,VWS V14.01,2013-04-06 22:23:00,
2013-04-06 17:25:00,72.8,62.9,29.84,SSE,159,12.2,23.2,71,0.00,,---,0.00,VWS V14.01,2013-04-06 22:25:00,
2013-04-06 17:28:00,72.8,62.9,29.84,ESE,106,12.2,21.2,71,0.00,,---,0.00,VWS V14.01,2013-04-06 22:28:00,
2013-04-06 17:30:00,72.7,63.2,29.84,SSE,148,15.2,21.2,72,0.00,,---,0.00,VWS V14.01,2013-04-06 22:30:00,
2013-04-06 17:33:00,72.7,63.5,29.84,ESE,111,6.2,18.2,73,0.00,,---,0.00,VWS V14.01,2013-04-06 22:33:00,
2013-04-06 17:35:00,73.0,63.5,29.84,South,175,5.2,18.2,72,0.00,,---,0.00,VWS V14.01,2013-04-06 22:35:00,
2013-04-06 17:38:00,73.0,62.7,29.84,SE,145,21.2,21.2,70,0.00,,---,0.00,VWS V14.01,2013-04-06 22:38:00,
2013-04-06 17:40:00,72.7,62.8,29.84,SSE,148,11.2,21.2,71,0.00,,---,0.00,VWS V14.01,2013-04-06 22:40:00,
2013-04-06 17:43:00,72.7,63.2,29.84,SSE,157,14.2,16.2,72,0.00,,---,0.00,VWS V14.01,2013-04-06 22:43:00,
2013-04-06 17:45:00,72.7,63.2,29.84,ESE,120,7.2,20.2,72,0.00,,---,0.00,VWS V14.01,2013-04-06 22:45:00,
2013-04-06 17:48:00,72.5,62.6,29.84,SSE,150,15.2,19.2,71,0.00,,---,0.00,VWS V14.01,2013-04-06 22:48:00,
2013-04-06 17:50:00,72.5,63.0,29.84,SE,144,18.2,19.2,72,0.00,,---,0.00,VWS V14.01,2013-04-06 22:50:00,
2013-04-06 17:53:00,72.3,62.8,29.84,SE,124,9.2,18.2,72,0.00,,---,0.00,VWS V14.01,2013-04-06 22:53:00,
2013-04-06 17:55:00,72.5,63.0,29.84,SSE,153,16.2,22.2,72,0.00,,---,0.00,VWS V14.01,2013-04-06 22:55:00,
2013-04-06 17:58:00,72.3,62.8,29.84,SE,133,10.2,19.2,72,0.00,,---,0.00,VWS V14.01,2013-04-06 22:58:00,
2013-04-06 18:00:00,72.3,63.2,29.84,SE,143,12.2,19.2,73,0.00,,---,0.00,VWS V14.01,2013-04-06 23:00:00,
2013-04-06 18:03:00,72.3,63.2,29.84,ESE,117,12.2,19.2,73,0.00,,---,0.00,VWS V14.01,2013-04-06 23:03:00,
2013-04-06 18:05:00,72.5,63.4,29.84,SE,138,7.2,19.2,73,0.00,,---,0.00,VWS V14.01,2013-04-06 23:05:00,
2013-04-06 18:09:00,72.5,63.4,29.84,SSE,157,6.2,21.2,73,0.00,,---,0.00,VWS V14.01,2013-04-06 23:09:00,
2013-04-06 18:10:00,72.5,63.4,29.84,ESE,122,6.2,21.2,73,0.00,,---,0.00,VWS V14.01,2013-04-06 23:10:00,
2013-04-06 18:14:00,72.5,63.4,29.84,SE,140,11.2,17.2,73,0.00,,---,0.00,VWS V14.01,2013-04-06 23:14:00,
2013-04-06 18:15:00,72.3,63.2,29.84,SE,131,7.2,18.2,73,0.00,,---,0.00,VWS V14.01,2013-04-06 23:15:00,
2013-04-06 18:19:00,72.5,63.4,29.84,SE,141,6.2,15.2,73,0.00,,---,0.00,VWS V14.01,2013-04-06 23:19:00,
2013-04-06 18:20:00,72.5,63.4,29.84,SE,137,5.2,21.2,73,0.00,,---,0.00,VWS V14.01,2013-04-06 23:20:00,
2013-04-06 18:24:00,72.1,63.0,29.84,SE,144,16.2,21.2,73,0.00,,---,0.00,VWS V14.01,2013-04-06 23:24:00,
2013-04-06 18:25:00,72.0,62.9,29.84,SE,138,10.2,21.2,73,0.00,,---,0.00,VWS V14.01,2013-04-06 23:25:00,
2013-04-06 18:29:00,72.1,63.4,29.84,SE,144,18.2,18.2,74,0.00,,---,0.00,VWS V14.01,2013-04-06 23:29:00,
2013-04-06 18:30:00,72.0,63.3,29.84,South,169,7.2,18.2,74,0.00,,---,0.00,VWS V14.01,2013-04-06 23:30:00,
2013-04-06 18:34:00,71.8,63.1,29.84,SE,134,13.2,15.2,74,0.00,,---,0.00,VWS V14.01,2013-04-06 23:34:00,
2013-04-06 18:35:00,71.8,63.5,29.84,SSE,149,12.2,18.2,75,0.00,,---,0.00,VWS V14.01,2013-04-06 23:35:00,
2013-04-06 18:39:00,71.5,63.2,29.84,SE,134,12.2,19.2,75,0.00,,---,0.00,VWS V14.01,2013-04-06 23:39:00,
2013-04-06 18:40:00,71.3,63.3,29.84,South,169,8.2,19.2,76,0.00,,---,0.00,VWS V14.01,2013-04-06 23:40:00,
2013-04-06 18:44:00,71.3,63.0,29.84,SE,140,7.2,18.2,75,0.00,,---,0.00,VWS V14.01,2013-04-06 23:44:00,
2013-04-06 18:45:00,71.3,63.3,29.84,SSE,156,20.2,20.2,76,0.00,,---,0.00,VWS V14.01,2013-04-06 23:45:00,
2013-04-06 18:49:00,71.1,63.2,29.84,SE,140,4.2,20.2,76,0.00,,---,0.00,VWS V14.01,2013-04-06 23:49:00,
2013-04-06 18:50:00,71.1,63.5,29.84,SSE,152,8.2,20.2,77,0.00,,---,0.00,VWS V14.01,2013-04-06 23:50:00,
2013-04-06 18:54:00,71.1,63.5,29.84,SE,126,10.2,17.2,77,0.00,,---,0.00,VWS V14.01,2013-04-06 23:54:00,
2013-04-06 18:55:00,70.9,63.3,29.84,SE,144,12.2,18.2,77,0.00,,---,0.00,VWS V14.01,2013-04-06 23:55:00,
2013-04-06 18:59:00,70.8,63.2,29.84,SSE,158,7.2,22.2,77,0.00,,---,0.00,VWS V14.01,2013-04-06 23:59:00,
2013-04-06 19:00:00,70.8,63.2,29.84,SE,141,11.2,22.2,77,0.00,,---,0.00,VWS V14.01,2013-04-07 00:00:00,
2013-04-06 19:04:00,70.6,63.4,29.84,SSE,168,8.2,13.2,78,0.00,,---,0.00,VWS V14.01,2013-04-07 00:04:00,
2013-04-06 19:05:00,70.6,63.4,29.84,SE,132,7.2,13.2,78,0.00,,---,0.00,VWS V14.01,2013-04-07 00:05:00,
2013-04-06 19:09:00,70.6,63.4,29.84,South,169,13.2,18.2,78,0.00,,---,0.00,VWS V14.01,2013-04-07 00:09:00,
2013-04-06 19:10:00,70.6,63.4,29.84,SE,134,7.2,18.2,78,0.00,,---,0.00,VWS V14.01,2013-04-07 00:10:00,
2013-04-06 19:14:00,70.4,63.2,29.84,SSE,158,16.2,18.2,78,0.00,,---,0.00,VWS V14.01,2013-04-07 00:14:00,
2013-04-06 19:15:00,70.3,63.1,29.84,SSW,196,4.2,18.2,78,0.00,,---,0.00,VWS V14.01,2013-04-07 00:15:00,
2013-04-06 19:19:00,70.3,63.5,29.84,SE,138,14.2,16.2,79,0.00,,---,0.00,VWS V14.01,2013-04-07 00:19:00,
2013-04-06 19:20:00,70.3,63.5,29.84,ESE,123,18.2,18.2,79,0.00,,---,0.00,VWS V14.01,2013-04-07 00:20:00,
2013-04-06 19:24:00,70.1,63.3,29.84,SE,141,7.2,19.2,79,0.00,,---,0.00,VWS V14.01,2013-04-07 00:24:00,
2013-04-06 19:25:00,70.1,63.3,29.84,SE,145,13.2,22.2,79,0.00,,---,0.00,VWS V14.01,2013-04-07 00:25:00,
2013-04-06 19:29:00,69.9,63.5,29.84,SE,133,12.2,18.2,80,0.00,,---,0.00,VWS V14.01,2013-04-07 00:29:00,
2013-04-06 19:30:00,69.9,63.5,29.84,South,184,10.2,18.2,80,0.00,,---,0.00,VWS V14.01,2013-04-07 00:30:00,
2013-04-06 19:34:00,69.9,63.5,29.84,SE,137,7.2,15.2,80,0.00,,---,0.00,VWS V14.01,2013-04-07 00:34:00,
2013-04-06 19:35:00,69.9,63.5,29.84,SE,140,12.2,15.2,80,0.00,,---,0.00,VWS V14.01,2013-04-07 00:35:00,
2013-04-06 19:39:00,69.8,63.4,29.84,SE,130,10.2,18.2,80,0.00,,---,0.00,VWS V14.01,2013-04-07 00:39:00,
2013-04-06 19:40:00,69.6,63.5,29.84,SE,140,10.2,18.2,81,0.00,,---,0.00,VWS V14.01,2013-04-07 00:40:00,
2013-04-06 19:44:00,69.4,63.3,29.84,SE,127,10.2,17.2,81,0.00,,---,0.00,VWS V14.01,2013-04-07 00:44:00,
2013-04-06 19:45:00,69.4,63.3,29.84,SSE,153,8.2,17.2,81,0.00,,---,0.00,VWS V14.01,2013-04-07 00:45:00,
2013-04-06 19:50:00,69.3,63.2,29.84,SSE,158,8.2,19.2,81,0.00,,---,0.00,VWS V14.01,2013-04-07 00:50:00,
2013-04-06 19:55:00,69.3,63.2,29.84,SSE,147,17.2,18.2,81,0.00,,---,0.00,VWS V14.01,2013-04-07 00:55:00,
2013-04-06 20:00:00,69.3,63.2,29.84,SSE,153,4.2,16.2,81,0.00,,---,0.00,VWS V14.01,2013-04-07 01:00:00,
2013-04-06 20:05:00,69.1,63.0,29.84,SE,134,6.2,16.2,81,0.00,,---,0.00,VWS V14.01,2013-04-07 01:05:00,
2013-04-06 20:10:00,69.1,63.4,29.84,SE,143,10.2,14.2,82,0.00,,---,0.00,VWS V14.01,2013-04-07 01:10:00,
2013-04-06 20:15:00,69.1,63.4,29.84,SE,140,14.2,15.2,82,0.00,,---,0.00,VWS V14.01,2013-04-07 01:15:00,
2013-04-06 20:20:00,68.9,63.2,29.84,SE,142,11.2,17.2,82,0.00,,---,0.00,VWS V14.01,2013-04-07 01:20:00,
2013-04-06 20:25:00,68.9,63.5,29.84,SSE,164,6.2,17.2,83,0.00,,---,0.00,VWS V14.01,2013-04-07 01:25:00,
2013-04-06 20:30:00,68.9,63.5,29.84,SE,136,11.2,21.2,83,0.00,,---,0.00,VWS V14.01,2013-04-07 01:30:00,
2013-04-06 20:35:00,68.8,63.4,29.84,SSE,153,12.2,21.2,83,0.00,,---,0.00,VWS V14.01,2013-04-07 01:35:00,
2013-04-06 20:40:00,68.8,63.8,29.84,SSE,153,4.2,19.2,84,0.00,,---,0.00,VWS V14.01,2013-04-07 01:40:00,
2013-04-06 20:45:00,68.6,63.6,29.83,SE,127,16.2,19.2,84,0.00,,---,0.00,VWS V14.01,2013-04-07 01:45:00,
2013-04-06 20:50:00,68.6,63.6,29.83,ESE,111,6.2,17.2,84,0.00,,---,0.00,VWS V14.01,2013-04-07 01:50:00,
2013-04-06 20:55:00,68.6,63.2,29.83,SE,129,2.2,17.2,83,0.00,,---,0.00,VWS V14.01,2013-04-07 01:55:00,
2013-04-06 21:00:00,68.6,63.6,29.83,SE,141,15.2,18.2,84,0.00,,---,0.00,VWS V14.01,2013-04-07 02:00:00,
2013-04-06 21:05:00,68.6,63.6,29.83,East,96,11.2,17.2,84,0.00,,---,0.00,VWS V14.01,2013-04-07 02:05:00,
2013-04-06 21:10:00,68.6,63.6,29.83,SE,126,15.2,16.2,84,0.00,,---,0.00,VWS V14.01,2013-04-07 02:10:00,
2013-04-06 21:15:00,68.4,63.4,29.84,SE,138,10.2,18.2,84,0.00,,---,0.00,VWS V14.01,2013-04-07 02:15:00,
2013-04-06 21:20:00,68.4,63.4,29.84,SE,142,12.2,16.2,84,0.00,,---,0.00,VWS V14.01,2013-04-07 02:20:00,
2013-04-06 21:25:00,68.4,63.7,29.84,SE,139,14.2,17.2,85,0.00,,---,0.00,VWS V14.01,2013-04-07 02:25:00,
2013-04-06 21:30:00,68.3,63.6,29.86,SE,140,5.2,16.2,85,0.00,,---,0.00,VWS V14.01,2013-04-07 02:30:00,
2013-04-06 21:35:00,68.3,64.0,29.86,SE,138,8.2,17.2,86,0.00,,---,0.00,VWS V14.01,2013-04-07 02:35:00,
2013-04-06 21:40:00,68.3,64.0,29.86,South,170,15.2,18.2,86,0.00,,---,0.00,VWS V14.01,2013-04-07 02:40:00,
2013-04-06 21:45:00,68.3,64.0,29.87,SSE,160,7.2,15.2,86,0.00,,---,0.00,VWS V14.01,2013-04-07 02:45:00,
2013-04-06 21:50:00,68.3,64.0,29.87,SE,130,8.2,14.2,86,0.00,,---,0.00,VWS V14.01,2013-04-07 02:50:00,
2013-04-06 21:55:00,68.1,63.8,29.87,SE,143,5.2,12.2,86,0.00,,---,0.00,VWS V14.01,2013-04-07 02:55:00,
2013-04-06 22:00:00,68.1,63.8,29.87,SSE,154,6.2,11.2,86,0.00,,---,0.00,VWS V14.01,2013-04-07 03:00:00,
2013-04-06 22:05:00,68.1,63.8,29.87,SSE,158,10.2,12.2,86,0.00,,---,0.00,VWS V14.01,2013-04-07 03:05:00,
2013-04-06 22:10:00,68.1,63.8,29.87,SE,146,10.2,12.2,86,0.00,,---,0.00,VWS V14.01,2013-04-07 03:10:00,
2013-04-06 22:15:00,67.9,63.9,29.88,SSE,155,8.2,13.2,87,0.00,,---,0.00,VWS V14.01,2013-04-07 03:15:00,
2013-04-06 22:20:00,67.9,63.9,29.88,SE,129,4.2,6.2,87,0.00,,---,0.00,VWS V14.01,2013-04-07 03:20:00,
2013-04-06 22:25:00,67.9,63.9,29.88,SSE,155,5.2,8.2,87,0.00,,---,0.00,VWS V14.01,2013-04-07 03:25:00,
2013-04-06 22:30:00,67.9,63.9,29.89,SE,143,3.2,8.2,87,0.00,,---,0.00,VWS V14.01,2013-04-07 03:30:00,
2013-04-06 22:35:00,67.9,63.9,29.89,SE,144,5.2,10.2,87,0.00,,---,0.00,VWS V14.01,2013-04-07 03:35:00,
2013-04-06 22:40:00,67.8,63.8,29.89,SE,138,5.2,8.2,87,0.00,,---,0.00,VWS V14.01,2013-04-07 03:40:00,
2013-04-06 22:45:00,67.8,64.1,29.88,SE,134,10.2,13.2,88,0.00,,---,0.00,VWS V14.01,2013-04-07 03:45:00,
2013-04-06 22:50:00,67.8,64.1,29.88,SE,134,6.2,13.2,88,0.00,,---,0.00,VWS V14.01,2013-04-07 03:50:00,
2013-04-06 22:55:00,67.8,64.1,29.88,SE,146,7.2,11.2,88,0.00,,---,0.00,VWS V14.01,2013-04-07 03:55:00,
2013-04-06 23:00:00,67.8,64.1,29.88,SE,135,11.2,13.2,88,0.00,,---,0.00,VWS V14.01,2013-04-07 04:00:00,
2013-04-06 23:05:00,67.9,64.2,29.87,SE,144,12.2,15.2,88,0.00,,---,0.00,VWS V14.01,2013-04-07 04:05:00,
2013-04-06 23:10:00,67.8,64.1,29.87,SE,134,12.2,13.2,88,0.00,,---,0.00,VWS V14.01,2013-04-07 04:10:00,
2013-04-06 23:15:00,67.8,64.1,29.87,SE,132,6.2,15.2,88,0.00,,---,0.00,VWS V14.01,2013-04-07 04:15:00,
2013-04-06 23:20:00,67.8,64.4,29.87,SE,132,5.2,14.2,89,0.00,,---,0.00,VWS V14.01,2013-04-07 04:20:00,
2013-04-06 23:25:00,67.6,64.2,29.87,SE,140,2.2,16.2,89,0.00,,---,0.00,VWS V14.01,2013-04-07 04:25:00,
2013-04-06 23:30:00,67.8,64.4,29.87,SSE,153,8.2,14.2,89,0.00,,---,0.00,VWS V14.01,2013-04-07 04:30:00,
2013-04-06 23:35:00,67.6,64.2,29.87,SSE,155,11.2,11.2,89,0.00,,---,0.00,VWS V14.01,2013-04-07 04:35:00,
2013-04-06 23:40:00,67.6,64.2,29.87,SE,129,7.2,12.2,89,0.00,,---,0.00,VWS V14.01,2013-04-07 04:40:00,
2013-04-06 23:45:00,67.6,64.2,29.87,SSE,154,11.2,14.2,89,0.00,,---,0.00,VWS V14.01,2013-04-07 04:45:00,
2013-04-06 23:50:00,67.6,64.2,29.87,SSE,156,5.2,14.2,89,0.00,,---,0.00,VWS V14.01,2013-04-07 04:50:00,
2013-04-06 23:55:00,67.6,64.2,29.87,SE,144,5.2,12.2,89,0.00,,---,0.00,VWS V14.01,2013-04-07 04:55:00,